| time (UTC) | temp F | wind direction | speed MPH | gust MPH | rain 1hr in | rain 24hr in | rain mn in | humidity % | barometer mb |
| 20260904060018 | 59 | 336 | 5.0 | 16.0 | 0.00 | 0.00 | 0.00 | 55 | 1001.6 |
| 20260904054517 | 59 | 340 | 6.0 | 15.0 | 0.00 | 0.00 | 0.00 | 55 | 1001.4 |
| 20260904053020 | 59 | 319 | 6.0 | 13.0 | 0.00 | 0.00 | 0.00 | 56 | 1001.5 |
| 20260904051517 | 59 | 346 | 8.0 | 18.0 | 0.00 | 0.00 | 0.00 | 56 | 1001.6 |
| 20260904050015 | 59 | 315 | 6.0 | 18.0 | 0.00 | 0.00 | 0.00 | 54 | 1001.8 |
| 20260904044515 | 59 | 312 | 7.0 | 15.0 | 0.00 | 0.00 | 0.00 | 54 | 1001.5 |
| 20260904043013 | 59 | 333 | 4.0 | 18.0 | 0.00 | 0.00 | 0.00 | 53 | 1001.6 |
| 20260904041513 | 59 | 324 | 7.0 | 17.0 | 0.00 | 0.00 | 0.00 | 53 | 1001.6 |
| 20260904040013 | 59 | 309 | 6.0 | 17.0 | 0.00 | 0.00 | 0.00 | 53 | 1001.5 |
| 20260904034512 | 60 | 360 | 10.0 | 20.0 | 0.00 | 0.00 | 0.00 | 51 | 1001.7 |
| 20260904033010 | 60 | 107 | 7.0 | 17.0 | 0.00 | 0.00 | 0.00 | 50 | 1001.5 |
| 20260904031510 | 60 | 113 | 5.0 | 13.0 | 0.00 | 0.00 | 0.00 | 50 | 1001.5 |
| 20260904030010 | 60 | 360 | 8.0 | 14.0 | 0.00 | 0.00 | 0.00 | 50 | 1001.4 |
| 20260904024509 | 60 | 360 | 5.0 | 13.0 | 0.00 | 0.00 | 0.00 | 50 | 1001.5 |
| 20260904023009 | 60 | 169 | 9.0 | 17.0 | 0.00 | 0.00 | 0.00 | 51 | 1001.6 |
| 20260904021507 | 61 | 360 | 1.0 | 13.0 | 0.00 | 0.00 | 0.00 | 52 | 1001.5 |
| 20260904020006 | 61 | 360 | 4.0 | 13.0 | 0.00 | 0.00 | 0.00 | 50 | 1001.8 |
| 20260904014505 | 62 | 360 | 6.0 | 15.0 | 0.00 | 0.00 | 0.00 | 49 | 1001.7 |
| 20260904013004 | 63 | 360 | 3.0 | 14.0 | 0.00 | 0.00 | 0.00 | 47 | 1001.7 |
| 20260904011502 | 63 | 360 | 6.0 | 14.0 | 0.00 | 0.00 | 0.00 | 47 | 1001.9 |
| 20260904010004 | 63 | 360 | 0.0 | 9.0 | 0.00 | 0.00 | 0.00 | 47 | 1001.9 |
| 20260904004501 | 63 | 360 | 7.0 | 14.0 | 0.00 | 0.00 | 0.00 | 47 | 1002.0 |
| 20260904003100 | 63 | 169 | 7.0 | 15.0 | 0.00 | 0.00 | 0.00 | 48 | 1002.1 |
| 20260904001606 | 64 | 360 | 8.0 | 20.0 | 0.00 | 0.00 | 0.00 | 47 | 1002.2 |
| 20260904000104 | 64 | 360 | 9.0 | 17.0 | 0.00 | 0.00 | 0.00 | 47 | 1002.2 |
| 20260903234600 | 64 | 360 | 13.0 | 21.0 | 0.00 | 0.00 | 0.00 | 48 | 1002.1 |
| 20260903233057 | 64 | 360 | 9.0 | 18.0 | 0.00 | 0.00 | 0.00 | 47 | 1002.1 |
| 20260903231557 | 64 | 360 | 7.0 | 25.0 | 0.00 | 0.00 | 0.00 | 45 | 1002.3 |
| 20260903230056 | 65 | 360 | 11.0 | 19.0 | 0.00 | 0.00 | 0.00 | 44 | 1002.4 |
| 20260903224556 | 66 | 360 | 11.0 | 19.0 | 0.00 | 0.00 | 0.00 | 43 | 1002.6 |
| 20260903223056 | 67 | 360 | 9.0 | 25.0 | 0.00 | 0.00 | 0.00 | 41 | 1002.6 |
| 20260903221555 | 70 | 40 | 7.0 | 21.0 | 0.00 | 0.00 | 0.00 | 38 | 1002.7 |
| 20260903220105 | 72 | 33 | 7.0 | 19.0 | 0.00 | 0.00 | 0.00 | 36 | 1002.5 |
| 20260903214554 | 71 | 87 | 2.0 | 14.0 | 0.00 | 0.00 | 0.00 | 37 | 1002.5 |
| 20260903213053 | 72 | 40 | 8.0 | 21.0 | 0.00 | 0.00 | 0.00 | 35 | 1002.4 |
| 20260903211553 | 72 | 36 | 2.0 | 14.0 | 0.00 | 0.00 | 0.00 | 37 | 1002.1 |
| 20260903210059 | 73 | 40 | 5.0 | 16.0 | 0.00 | 0.00 | 0.00 | 35 | 1002.2 |
| 20260903204551 | 73 | 36 | 3.0 | 13.0 | 0.00 | 0.00 | 0.00 | 35 | 1002.4 |
| 20260903203047 | 72 | 35 | 2.0 | 12.0 | 0.00 | 0.00 | 0.00 | 37 | 1002.6 |
| 20260903201543 | 69 | 36 | 5.0 | 14.0 | 0.00 | 0.00 | 0.00 | 39 | 1002.8 |
| 20260903200040 | 67 | 37 | 5.0 | 12.0 | 0.00 | 0.00 | 0.00 | 40 | 1003.0 |
| 20260903194546 | 66 | 166 | 3.0 | 14.0 | 0.00 | 0.00 | 0.00 | 41 | 1003.4 |
| 20260903193043 | 66 | 57 | 1.0 | 8.0 | 0.00 | 0.00 | 0.00 | 41 | 1003.6 |
| 20260903191533 | 66 | 28 | 0.0 | 15.0 | 0.00 | 0.00 | 0.00 | 41 | 1003.9 |
| 20260903190032 | 66 | 44 | 5.0 | 10.0 | 0.00 | 0.00 | 0.00 | 39 | 1004.2 |
| 20260903184531 | 65 | 157 | 1.0 | 4.0 | 0.00 | 0.00 | 0.00 | 40 | 1004.1 |
| 20260903183029 | 66 | 185 | 1.0 | 6.0 | 0.00 | 0.00 | 0.00 | 40 | 1004.4 |
| 20260903181532 | 66 | 5 | 2.0 | 12.0 | 0.00 | 0.00 | 0.00 | 38 | 1004.3 |
| 20260903180026 | 66 | 28 | 5.0 | 14.0 | 0.00 | 0.00 | 0.00 | 37 | 1004.5 |
| 20260903174526 | 67 | 267 | 3.0 | 13.0 | 0.00 | 0.00 | 0.00 | 35 | 1004.6 |
| 20260903173027 | 67 | 153 | 1.0 | 9.0 | 0.00 | 0.00 | 0.00 | 36 | 1004.8 |
| 20260903171521 | 66 | 244 | 3.0 | 10.0 | 0.00 | 0.00 | 0.00 | 34 | 1004.8 |
| 20260903170017 | 65 | 232 | 2.0 | 8.0 | 0.00 | 0.00 | 0.00 | 34 | 1005.2 |
| 20260903164513 | 64 | 148 | 3.0 | 7.0 | 0.00 | 0.00 | 0.00 | 35 | 1005.5 |
| 20260903163015 | 63 | 269 | 2.0 | 9.0 | 0.00 | 0.00 | 0.00 | 35 | 1005.6 |
| 20260903161506 | 62 | 218 | 1.0 | 6.0 | 0.00 | 0.00 | 0.00 | 37 | 1005.7 |
| 20260903160009 | 61 | 218 | 2.0 | 6.0 | 0.00 | 0.00 | 0.00 | 37 | 1005.9 |
| 20260903154602 | 59 | 238 | 0.0 | 3.0 | 0.00 | 0.00 | 0.00 | 41 | 1006.0 |
| 20260903153058 | 58 | 238 | 0.0 | 2.0 | 0.00 | 0.00 | 0.00 | 47 | 1006.3 |
| 20260903151607 | 58 | 238 | 0.0 | 4.0 | 0.00 | 0.00 | 0.00 | 41 | 1006.3 |
| 20260903144553 | 56 | 238 | 0.0 | 1.0 | 0.00 | 0.00 | 0.00 | 47 | 1006.4 |
| 20260903143056 | 56 | 238 | 0.0 | 8.0 | 0.00 | 0.00 | 0.00 | 42 | 1006.3 |
| 20260903141548 | 56 | 268 | 0.0 | 12.0 | 0.00 | 0.00 | 0.00 | 42 | 1006.2 |
| 20260903140045 | 56 | 267 | 2.0 | 6.0 | 0.00 | 0.00 | 0.00 | 40 | 1006.1 |
| 20260903134551 | 56 | 331 | 3.0 | 8.0 | 0.00 | 0.00 | 0.00 | 41 | 1006.1 |
| 20260903133041 | 56 | 51 | 3.0 | 10.0 | 0.00 | 0.00 | 0.00 | 43 | 1006.0 |
| 20260903131540 | 55 | 146 | 0.0 | 5.0 | 0.00 | 0.00 | 0.00 | 42 | 1006.1 |
| 20260903130040 | 55 | 146 | 0.0 | 3.0 | 0.00 | 0.00 | 0.00 | 43 | 1006.1 |
| 20260903124538 | 54 | 271 | 0.0 | 1.0 | 0.00 | 0.00 | 0.00 | 46 | 1006.3 |
| 20260903123036 | 55 | 271 | 0.0 | 0.0 | 0.00 | 0.00 | 0.00 | 45 | 1006.2 |
| 20260903121533 | 55 | 271 | 0.0 | 4.0 | 0.00 | 0.00 | 0.00 | 45 | 1006.6 |
| 20260903120036 | 55 | 277 | 0.0 | 1.0 | 0.00 | 0.00 | 0.00 | 45 | 1006.8 |
| 20260903114532 | 56 | 277 | 0.0 | 3.0 | 0.00 | 0.00 | 0.00 | 45 | 1006.7 |
| 20260903113032 | 56 | 277 | 0.0 | 3.0 | 0.00 | 0.00 | 0.00 | 44 | 1006.8 |
| 20260903111527 | 56 | 277 | 0.0 | 0.0 | 0.00 | 0.00 | 0.00 | 44 | 1007.0 |
| 20260903110026 | 57 | 277 | 0.0 | 4.0 | 0.00 | 0.00 | 0.00 | 44 | 1007.2 |
| 20260903104527 | 57 | 277 | 0.0 | 2.0 | 0.00 | 0.00 | 0.00 | 42 | 1007.2 |
| 20260903103024 | 58 | 277 | 0.0 | 2.0 | 0.00 | 0.00 | 0.00 | 41 | 1007.3 |
| 20260903101527 | 58 | 327 | 1.0 | 4.0 | 0.00 | 0.00 | 0.00 | 40 | 1007.3 |
| 20260903100022 | 58 | 335 | 0.0 | 8.0 | 0.00 | 0.00 | 0.00 | 39 | 1007.2 |
| 20260903094522 | 59 | 40 | 0.0 | 9.0 | 0.00 | 0.00 | 0.00 | 39 | 1007.2 |
| 20260903093028 | 58 | 32 | 0.0 | 7.0 | 0.00 | 0.00 | 0.00 | 37 | 1007.3 |
| 20260903091518 | 59 | 44 | 0.0 | 11.0 | 0.00 | 0.00 | 0.00 | 37 | 1007.6 |
| 20260903090017 | 58 | 37 | 1.0 | 8.0 | 0.00 | 0.00 | 0.00 | 37 | 1007.7 |
| 20260903084517 | 58 | 40 | 3.0 | 14.0 | 0.00 | 0.00 | 0.00 | 38 | 1007.7 |
| 20260903083015 | 58 | 35 | 6.0 | 16.0 | 0.00 | 0.00 | 0.00 | 38 | 1007.6 |
| 20260903081534 | 57 | 39 | 8.0 | 17.0 | 0.00 | 0.00 | 0.00 | 40 | 1007.8 |
| 20260903080011 | 57 | 50 | 8.0 | 16.0 | 0.00 | 0.00 | 0.00 | 40 | 1007.8 |
| 20260903074509 | 57 | 45 | 2.0 | 11.0 | 0.00 | 0.00 | 0.00 | 38 | 1007.8 |
| 20260903073009 | 57 | 46 | 4.0 | 11.0 | 0.00 | 0.00 | 0.00 | 37 | 1007.9 |
| 20260903071505 | 57 | 36 | 0.0 | 3.0 | 0.00 | 0.00 | 0.00 | 39 | 1008.0 |
| 20260903070001 | 58 | 36 | 1.0 | 11.0 | 0.00 | 0.00 | 0.00 | 38 | 1007.9 |
| 20260903064500 | 59 | 28 | 1.0 | 7.0 | 0.00 | 0.00 | 0.00 | 27 | 1007.7 |
| 20260903063100 | 59 | 26 | 0.0 | 3.0 | 0.00 | 0.00 | 0.00 | 26 | 1007.7 |
| 20260903061608 | 60 | 15 | 0.0 | 12.0 | 0.00 | 0.00 | 0.00 | 26 | 1007.9 |